Location: Hamilton
(37.7830°S, 175.2830°E)
Time: 11:26:39
(UTC+12:00)

N. Korean satellite - Visible Passes

Search period start: 09 August 2022 00:00
Search period end: 19 August 2022 00:00
Orbit: 433 x 471 km, 97.3° (Epoch: 08 August)

Date Brightness Start Highest point End Pass type
(mag) Time Alt. Az. Time Alt. Az. Time Alt. Az.
10 Aug 9.8 18:41:51 10° SW 18:42:38 11° WSW 18:43:24 10° W visible
11 Aug 8.6 18:05:32 10° SSW 18:08:29 29° WSW 18:11:25 10° NW visible
13 Aug 9.5 18:30:15 10° SW 18:32:09 14° WSW 18:34:04 10° WNW visible
16 Aug 9.3 18:18:51 10° SSW 18:21:22 20° WSW 18:23:52 10° WNW visible
18 Aug 10.1 18:44:28 10° WSW 18:44:40 10° WSW 18:44:51 10° WSW visible
